Weather observations for the past three days for
Pierre, Pierre Regional Airport
Imperial (Metric)
Date Time (cdt) Wind (mph) Vis. (mi.) Weather Sky Cond. Temperature (ºF) Relative Humidity Wind Chill (°F) Heat Index (°F) Pressure Precipitation (in)
Air Dwpt 6 hour altimeter (in) sea level (mb) 1 hr 3 hr 6 hr
Max. Min.
22 02:53 E 6 10.00 A Few Clouds FEW060 64 64 100% 29.89 1011.2
22 01:53 SE 3 10.00 Partly Cloudy SCT060 66 64.9 96% 29.9 1011.6
22 00:53 E 7 10.00 Overcast OVC042 68 66 75 68 93% 29.93 1012.4
21 23:53 E 5 10.00 Overcast BKN030 OVC042 69.1 66.9 93% 29.94 1012.8
21 22:53 E 7 10.00 Overcast BKN026 OVC042 69.1 66.9 93% 29.93 1012.4
21 21:53 E 10 10.00 Overcast OVC033 71.1 66.9 87% 29.91 1011.8
21 20:53 E 7 10.00 Overcast OVC030 73 66.9 81% 29.9 1011.3
21 19:53 S 6 10.00 Overcast OVC026 73 66.9 81% 29.93 1012.4
21 18:53 E 3 10.00 Mostly Cloudy BKN021 73.9 66 75.9 66.9 76% 29.92 1012.3
21 17:53 E 6 10.00 Mostly Cloudy BKN022 73.9 66 76% 29.95 1013.2
21 16:53 SE 8 10.00 Overcast OVC019 72 66 82% 30 1015.0
21 15:53 SE 8 10.00 Overcast OVC017 72 66 82% 30.01 1015.5
21 14:53 SE 15 10.00 A Few Clouds FEW014 73.9 66.9 79% 29.99 1014.5
21 13:53 SE 17 10.00 Overcast OVC012 69.1 64.9 87% 30 1015.3
21 12:53 SE 20 G 26 9.00 Light Rain OVC012 66.9 64.9 68 62.1 93% 30.02 1015.8 0.02 0.02
21 11:53 SE 16 10.00 Overcast OVC012 66.9 64 91% 30.07 1017.5
21 10:53 SE 17 10.00 Overcast OVC011 66.9 64 91% 30.07 1017.8
21 09:53 SE 14 10.00 Overcast OVC006 64.9 64 97% 30.08 1017.9
21 08:53 E 10 2.00 Fog/Mist OVC003 64 63 96% 30.09 1018.5
21 07:53 E 8 7.00 Overcast OVC004 63 63 100% 30.11 1019.3
21 06:53 E 8 9.00 Overcast OVC002 62.1 62.1 62.1 60.1 100% 30.09 1018.5
21 05:53 E 7 1.75 Fog/Mist OVC002 61 61 100% 30.09 1018.6
21 04:53 E 8 7.00 Overcast OVC002 61 61 100% 30.1 1018.8
21 03:53 E 10 6.00 Fog/Mist OVC002 61 61 100% 30.08 1018.3
21 02:53 NE 7 7.00 Overcast OVC002 61 61 100% 30.12 1019.5
21 01:53 NE 6 10.00 Overcast OVC005 61 61 100% 30.1 1018.8
21 00:53 NE 6 10.00 Overcast OVC006 61 61 63 60.1 100% 30.12 1019.4 0.01
20 23:53 NE 14 10.00 Overcast OVC007 60.1 60.1 100% 30.11 1019.1
20 22:53 E 10 10.00 Light Rain OVC006 60.1 60.1 100% 30.09 1018.7 0.01
20 21:53 E 6 10.00 Overcast OVC006 61 60.1 97% 30.11 1019.2
20 20:53 E 14 10.00 Overcast OVC007 61 60.1 97% 30.11 1019.4
20 19:53 E 14 10.00 Overcast OVC008 61 60.1 97% 30.12 1019.6
20 18:53 E 16 10.00 Overcast OVC009 63 60.1 63 57.9 90% 30.12 1019.5 0.57
20 17:53 E 13 10.00 Overcast OVC009 62.1 60.1 93% 30.15 1020.8
20 16:53 E 16 G 22 10.00 Overcast OVC010 63 61 93% 30.15 1020.7
20 15:53 E 15 10.00 Overcast OVC005 62.1 61 96% 30.18 1021.9 0.08 0.57
20 14:53 E 14 1.00 Thunderstorm Heavy Rain Fog/Mist BKN006 OVC025 59 57.9 96% 30.19 1022.3 0.49
20 13:53 E 13 10.00 Thunderstorm in Vicinity OVC007 60.1 59 96% 30.2 1022.6
20 12:53 E 14 10.00 Overcast OVC007 60.1 57.9 60.1 57 93% 30.21 1022.8 0.09
20 11:53 SE 22 G 31 10.00 Overcast and Breezy OVC009 60.1 57.9 93% 30.22 1022.9
20 10:53 SE 13 G 24 10.00 Overcast OVC008 59 57.9 96% 30.24 1023.9
20 09:53 E 14 G 23 10.00 Overcast OVC005 57.9 57.9 100% 30.22 1023.2 0.07 0.09
20 08:53 SE 15 4.00 Light Rain Fog/Mist OVC004 59 59 100% 30.25 1024.2 0.01
20 07:53 E 14 G 21 5.00 Fog/Mist OVC004 57.9 57.9 100% 30.23 1023.3 0.01
20 06:53 E 10 4.00 Light Rain Fog/Mist OVC005 57 57 59 55 100% 30.23 1023.1 0.2
20 05:53 E 9 8.00 Overcast OVC007 57 57 100% 30.22 1022.9 0.01
20 04:53 E 8 3.00 Light Rain Fog/Mist OVC016 55.9 55.9 100% 30.24 1023.3
20 03:53 E 8 6.00 Light Rain Fog/Mist SCT009 OVC023 55.9 55 97% 30.26 1024.1 0.05 0.19
20 02:53 E 7 9.00 Light Rain OVC039 55.9 54 93% 30.27 1024.8 0.06
20 01:53 SE 10 5.00 Light Rain Fog/Mist BKN055 OVC070 57.9 55.9 93% 30.28 1024.9 0.08
20 00:53 SE 6 10.00 Overcast OVC060 57.9 55.9 69.1 57.9 93% 30.28 1025.1 0.08
19 23:53 E 9 10.00 Overcast FEW037 OVC070 60.1 55.9 86% 30.27 1024.6
19 22:53 SE 9 10.00 Overcast OVC070 60.1 55.9 86% 30.28 1025.2 0.01
19 21:53 SE 10 10.00 Overcast OVC080 61 55.9 84% 30.25 1024.3 0.02 0.07
19 20:53 SE 8 10.00 Thunderstorm Light Rain OVC085 61 55.9 84% 30.24 1024.0 0.04
19 19:53 SE 7 10.00 Light Rain FEW037 OVC095 63 55 76% 30.22 1023.4 0.01
19 18:53 SE 10 10.00 Mostly Cloudy BKN110 69.1 48.9 72 62.1 49% 30.22 1022.8
19 17:53 SE 14 10.00 Partly Cloudy SCT110 71.1 48.9 46% 30.23 1023.2
19 16:53 E 9 10.00 Fair CLR 71.1 48.9 46% 30.24 1023.6
19 15:53 Calm 10.00 Fair CLR 70 48 46% 30.26 1024.3
19 14:53 SE 6 10.00 Fair CLR 66 48 52% 30.27 1024.9
19 13:53 SE 7 10.00 A Few Clouds FEW037 64.9 48.9 56% 30.29 1025.7
19 12:53 SE 3 10.00 Overcast OVC032 62.1 48.9 63 53.1 62% 30.3 1026.1
19 11:53 E 5 10.00 Mostly Cloudy BKN031 62.1 48 60% 30.31 1026.0
19 10:53 Calm 10.00 Overcast OVC028 59 48.9 69% 30.31 1026.2
19 09:53 E 5 10.00 Overcast BKN024 OVC033 57 48 72% 30.3 1025.9
19 08:53 N 9 10.00 Overcast OVC022 55 48.9 80% 30.29 1025.3
19 07:53 N 9 10.00 Overcast OVC020 53.1 48 83% 30.26 1024.4
19 06:53 N 10 10.00 Overcast OVC016 53.1 50 54 51.1 89% 30.24 1023.5
19 05:53 N 8 10.00 Overcast FEW009 OVC020 53.1 51.1 93% 30.21 1022.5
19 04:53 N 13 G 23 10.00 Overcast OVC010 53.1 51.1 93% 30.17 1021.0
Date Time (cdt) Wind (mph) Vis. (mi.) Weather Sky Cond. Air Dwpt Max. Min. Relative Humidity Wind Chill (°F) Heat Index (°F) altimeter (in) sea level (mb) 1 hr 3 hr 6 hr
6 hour
Temperature (ºF) Pressure Precipitation (in)